www.pogodaiklimat.ru

Погода и климат >> Архив погоды >> Россия >> Якутия >> Тонгулах


ПОГОДА в Тонгулахе

  • Прогноз погоды в Тонгулахе
  • Монитор погоды в Тонгулахе
  • Климат города

АРХИВ ПОГОДЫ в Тонгулахе

Время (UTC), дата Ветер
(напр.,м/с)
 
Видим.   Явления Облачность Т
(С)
Тd
(С)
f
(%)
Тe
(С)
Тes
(С)
Комфортность P
(гПа)
Po
(гПа)
Тmin
(С)
Tmax
(С)
R
(мм)
R24
(мм)
S
(см)
06 19.04 ЮЗ 3 50 км 9/0
[Ci sp]
+7.0 -9.6 30 +5 +10 1010.4 986.2
09 19.04 Ю 4 50 км 6/0
[Ci fib]
+6.6 -11.1 27 +4 +5 1010.0 985.8
12 19.04 штиль 0 50 км 10/0
[Cs]
-0.2 -13.0 37 -0 -0 1011.1 986.3 +8.2
15 19.04 штиль 0 20 км 10/0
[Cs]
-1.6 -9.3 56 -2 -2 1010.7 985.8
18 19.04 штиль 0 20 км 10/0
[Cs]
-2.4 -8.4 63 -3 -3 1010.5 985.5
21 19.04 штиль 0 50 км 10/0
[As op]
-2.0 -8.2 63 -3 -3 1010.1 985.1
00 20.04 штиль 0 50 км 10/0
[Ac As]
+3.6 -2.7 63 +3 +5 1008.7 984.3 -2.6 23
03 20.04 Ю 3 50 км 10/6 600 м
[Sc Ac und]
+5.3 -2.1 59 +2 +3 1007.1 982.8
06 20.04 Ю 1 50 км 9/9 600 м
[Cb cap]
+7.3 +1.8 68 +7 +8 1004.6 980.6
09 20.04 Ю 1 50 км 10/6 600 м
[Cb cap As op]
+6.0 -1.9 57 +5 +6 1003.5 979.4
12 20.04 штиль 0 50 км 10/0
[Ac As]
+3.0 -2.1 69 +2 +2 1003.4 979.1 +8.0
15 20.04 штиль 0 20 км 10/0
[Ac As]
+2.3 -2.3 72 +2 +2 1001.4 977.1
18 20.04 штиль 0 20 км 10/0
[Ac As]
+1.9 -2.5 73 +1 +1 999.9 975.5
21 20.04 штиль 0 50 км 10/0
[Ac trans Ci fib]
-0.6 -4.4 75 -2 -1 1001.3 975.7
00 21.04 З 2 50 км 8/0
[Ac trans Ci fib]
+6.0 -2.2 56 +4 +8 1002.4 978.3 -0.9 23
03 21.04 ЮЗ 2 50 км 9/0
[As trans Ci sp]
+7.7 -2.6 48 +6 +12 1003.4 979.4
06 21.04 З 1 50 км 9/8 600 м
[Cu med, cong Ci sp]
+9.1 -3.8 40 +9 +11 1004.3 980.5
09 21.04 СВ 2 50 км 10/0
[As op]
+7.4 -3.8 45 +6 +6 1005.7 981.7
12 21.04 штиль 0 50 км 10/0
[Ac As]
+4.8 -4.3 52 +4 +4 1007.8 983.4 +10.1
15 21.04 штиль 0 10 км слабый дождь со снегом 10/0
[As op]
+2.5 -0.2 82 +2 +2 1008.2 983.7
18 21.04 штиль 0 10 км слабый дождь со снегом 10/0
[As op]
+2.0 -0.2 85 +1 +1 1007.7 983.2
21 21.04 ЮВ 1 20 км слабый дождь со снегом 10/0
[As op]
+1.5 +0.1 90 -0 -0 1007.4 982.8
00 22.04 СВ 1 20 км слабый дождь со снегом 10/0
[As op]
+0.6 -0.2 94 -1 -0 1007.9 983.2 +0.3 5 25
03 22.04 ЮЗ 1 50 км {снег} 10/0
[As op]
+1.6 +0.2 90 -0 +2 1010.3 985.7
06 22.04 СЗ 3 50 км {снег} 10/10 600 м
[Sc]
+2.6 -0.1 82 -1 -1 1013.6 988.9
09 22.04 СЗ 2 50 км 10/10 600 м
[Sc]
+2.8 -2.0 71 0 0 1016.3 991.6
12 22.04 штиль 0 50 км 10/0
[Ac trans Ci sp]
+0.5 -3.1 77 -0 -0 1019.0 994.0 +3.4
15 22.04 штиль 0 20 км 3/0
[Ci fib]
-4.2 -5.8 89 -5 -5 1020.6 995.2
18 22.04 штиль 0 20 км ясно -6.0 -7.5 89 -7 -7 1021.4 995.8
00 23.04 СЗ 1 50 км 10/0
[Ac As]
-1.6 -8.5 59 -3 -2 1025.1 999.8 -9.1 17
03 23.04 С 1 50 км 10/0
[As op]
+1.6 -11.3 38 +1 +3 1024.9 1000.0
06 23.04 СВ 1 50 км 10/0
[Ac und]
+4.8 -9.7 34 +4 +7 1024.4 999.7
09 23.04 СВ 1 50 км 10/0
[Ac As Ci fib]
+4.4 -9.4 36 +4 +5 1024.4 999.7
12 23.04 штиль 0 50 км 9/0
[Ac trans]
+2.8 -11.4 34 +3 +3 1025.5 1000.6 +5.8
15 23.04 штиль 0 20 км 8/0
[Ac As]
+0.3 -11.0 42 0 0 1026.1 1001.0
18 23.04 штиль 0 20 км 8/0
[Ac As]
-0.6 -11.5 43 -1 -1 1026.7 1001.5
21 23.04 штиль 0 50 км 9/0
[Ac trans]
-1.1 -10.4 49 -2 -1 1027.6 1002.3
00 24.04 СЗ 3 50 км 10/0
[Ac As Ci fib]
+3.0 -9.9 38 -0 +2 1027.9 1002.9 -1.4 15
03 24.04 СЗ 3 50 км 10/0
[Ac trans Cs]
+5.9 -6.7 40 +3 +9 1027.5 1002.7
06 24.04 СЗ 4 50 км 10/0
[Ac lent Cs]
+7.0 -7.5 35 +4 +8 1026.5 1002.0
09 24.04 СЗ 1 50 км 3/0
[Ci fib]
+7.6 -7.8 33 +8 +10 1025.5 1001.0
12 24.04 штиль 0 50 км ясно +1.8 -11.7 36 +2 +2 1025.9 1000.9 +8.2
15 24.04 штиль 0 20 км ясно -4.3 -9.8 65 -5 -5 1026.7 1001.1
18 24.04 штиль 0 20 км ясно -6.2 -11.1 68 -7 -7 1027.3 1001.5
21 24.04 штиль 0 50 км 10/0
[Ac As Cs]
-4.1 -8.6 71 -5 -5 1025.3 999.7
00 25.04 штиль 0 50 км 6/0
[Ac As]
+1.7 -5.4 59 +1 +1 1024.0 999.3 +6.4 11
03 25.04 СЗ 1 50 км 8/4 1000 м
[Sc Ac As]
+7.3 -7.0 35 +7 +11 1022.7 998.2
06 25.04 СЗ 1 50 км 8/8 600 м
[Sc]
+8.7 -7.1 32 +9 +11 1020.6 996.3
09 25.04 С 1 50 км 8/4 600 м
[Sc Ac As]
+8.0 -7.1 33 +8 +9 1019.6 995.3
12 25.04 штиль 0 50 км ясно +2.2 -10.3 39 +2 +2 1018.5 994.7 +9.7
15 25.04 штиль 0 20 км ясно -4.2 -9.2 68 -5 -5 1019.3 993.9
18 25.04 штиль 0 20 км ясно -5.6 -9.4 75 -6 -6 1018.7 993.2
21 25.04 штиль 0 50 км 10/0
[Ac As Cs]
-4.4 -8.3 74 -5 -5 1013.9 988.6
00 26.04 штиль 0 50 км 10/0
[As op]
+1.5 -5.1 61 +1 +2 1010.4 985.8 -5.8 7
03 26.04 ЮВ 3 50 км 10/0
[Ac As]
+8.3 -3.5 43 +6 +9 1006.1 982.2

 

Местоположение метеостанции Тонгулах (Якутия, Россия): широта 61.92 долгота 124.50 высота над уровнем моря 199 м.

В архиве по умолчанию представлена погода в Тонгулахе за последнюю неделю. Архивные данные за месяц целиком и за предыдущие месяцы, начиная с января 2011 года, Вы можете получить, выбрав интересующий диапазон дат из раскрывающегося списка и нажав кнопку "Ввод!".

Внимание! Время в таблицах - всемирное. Для получения местного времени необходимо прибавить поправку, которая в Тонгулахе равна 9 ч.

Смотрите также архив погоды в соседних городах и на ближайших метеорологических станциях:

Погода в Исите (Якутия, Россия) (130 км)
Погода в Бердигестяхе (Якутия, Россия) (136 км)
Погода в Хатырык-Хомо (Якутия, Россия) (226 км)
Погода в Покровске (Якутия, Россия) (247 км)
Погода в Вилюйске (Якутия, Россия) (253 км)
Погода в Якутске (Якутия, Россия) (267 км)
Погода в Сангаре (Якутия, Россия) (269 км)
Погода в Олекминске (Якутия, Россия) (277 км)
Погода в Верхневилюйске (Якутия, Россия) (278 км)
Погода в Намцах (Якутия, Россия) (278 км)

Пояснения к столбцам:

Ветер - указаны скорость ветра в м/с - средняя за 10 мин, порывы в срок и между сроками (в фигурных скобках) и направление, откуда дует ветер: С - северный, СВ - северо-восточный, В - восточный, ЮВ - юго-восточный, Ю - южный, ЮЗ - юго-западный, З - западный, СЗ - северо-западный.
Видимость - горизонтальная дальность видимости в метрах или километрах. При видимости от 1 до 10 км при отсутствии осадков обычно наблюдается дымка, при ухудшении видимости до 1 км и менее - туман. В сухую погоду видимость может ухудшаться дымом, пылью или мглою.
Явления - указаны атмосферные явления, наблюдавшиеся в срок или в последний час перед сроком; фигурными скобками обозначены явления, наблюдавшиеся между сроками (за 1-3 часа до срока); квадратными скобками обозначены град или гололедные отложения с указанием их диаметра в мм.
Облачность - указаны через наклонную черту общая и нижняя облачность в баллах и высота нижней границы облаков в метрах; квадратными скобками обозначены формы облаков: Ci - перистые, Cs - перисто-слоистые, Cc - перисто-кучевые, Ac - высококучевые, As - высокослоистые, Sc - слоисто-кучевые, Ns - слоисто-дождевые, Cu - кучевые, Cb - кучево-дождевые. Подробнее классификацию облаков см. в Атласе облаков (PDF).
T - Температура воздуха - температура, измеренная на высоте 2 м над землей.
Td - Температура точки росы - температура, при понижении до которой содержащийся в воздухе водяной пар достигнет насыщения.
f - Относительная влажность воздуха - влажноcть воздуха, измеренная на высоте 2 м над землей.
Te - Эффективная температура - температура, которую ощущает одетый по сезону человек в тени. Характеристика душности погоды. При расчете учитывается влияние влажности воздуха и скорости ветра на теплоощущения человека.
Tes - Эффективная температура на солнце - температура, которую ощущает человек, с поправкой на солнечный нагрев. Характеристика знойности погоды. Зависит от высоты солнца над горизонтом, облачности и скорости ветра. Ночью, в пасмурную погоду, а также при ветре 12 м/с и более поправка равна нулю.
P - Атмосферное давление - приведенное к уровню моря атмосферное давление.
Po - Атмосферное давление - измеренное на уровне метеостанции атмосферное давление.
Tmin - Минимальная температура - минимум температуры воздуха на высоте 2 м над землей.
Tmax - Максимальная температура - максимум температуры воздуха на высоте 2 м над землей.
R - Количество осадков - Количество выпавших осадков за период времени, мм. При наведении курсора мыши на число - период времени, за который выпало указанное количество осадков.
R24 - Количество осадков - Количество выпавших осадков за 24 часа, мм.
S - Снежный покров - Высота снежного покрова, см. При наведении курсора мыши на число - состояние снежного покрова и степень покрытия местности в баллах.